Location: Hermaringen
(48.5952°N, 10.2585°E)
Time: 23:31:24
(UTC+00:00)

Cosmos 407 Rocket - Pass Details

Date: 18 November 2025
Orbit: 740 x 780 km, 74.0° (Epoch: 05 December)

Event Time Altitude Azimuth Distance (km) Brightness Sun altitude
Rises 16:23:11 0° 185° (S) 3,206 7.1 -7.9°
Reaches altitude 10° 16:25:36 10° 181° (S) 2,278 6.2 -8.3°
Maximum altitude 16:30:35 51° 106° (ESE) 943 3.7 -9.1°
Drops below altitude 10° 16:35:33 10° 32° (NNE) 2,272 5.5 -9.9°
Enters shadow 16:36:59 - 29° (NNE) 2,820 6.0 -10.1°
